sat.trackr.live / text

‹ back to catalog

KUZGTU 1 (RS47S)

NORAD 57217 · 2023-091AV

PAYLOAD ACTIVE UNKNOWN

§ Identity

Operator
Country
CIS
Launch date
2023-06-27
Launch site
VOSTO
Launch vehicle
Mass (kg)
RCS (m²)

Purposes: comms

External: N2YO · Heavens-Above · Gunter

§ Orbital elements

Epoch: 2026-09-19T22:41:46.939488Z

Period
94.01 min
Inclination
97.4968°
Eccentricity
0.0011738
Mean motion
15.31742525 rev/d
Perigee alt
462.6 km
Apogee alt
478.7 km
Semi-major
6,848.8 km
B*
2.8308e-4
RAAN
328.4711°
Arg perigee
117.7808°
Mean anomaly
242.4624°
Rev number
17,887

§ Raw data

KUZGTU 1 (RS47S)1 57217U 23091AV  26262.94568217  .00008615  00000+0  28308-3 0  99902 57217  97.4968 328.4711 0011738 117.7808 242.4624 15.31742525178875

JSON: /api/v1/satellites/57217 · /tle

For live sub-satellite position, see the globe view (requires WebGL).

§ Visibility from observer

Set your observer location to see the next 7 days of passes ≥ 10°. The values pass through the URL so the page stays shareable.

No JS? Fill the form by hand. The geolocation button needs JavaScript.

§ Radio — SatNOGS DB

ModeDescriptionDownlinkUplink
GMSK USP Mode U - GMSK 4k8 (USP FEC) TLM 437.100 MHz

1 transmitter · refreshed weekly from db.satnogs.org